{"data":{"norad_id":47303,"intl_designator":"2020-103B","name":"WEINA 2","alt_names":[],"object_type":"PAYLOAD","status":"ACTIVE","operator":null,"country":"PRC","launch_date":"2020-12-27","launch_site_code":"JSC","launch_vehicle":null,"mission":null,"orbit_class":"UNKNOWN","rcs_meters":null,"size_class":null,"mass_kg":null,"dimensions":null,"purposes":[],"wikipedia_slug":null,"has_3d_model":false,"image_url":null,"decayed_at":null,"tle_current":{"epoch":"2026-09-20T21:53:11.410368Z","epoch_age_seconds":43817,"freshness":"FRESH","line1":"1 47303U 20103B   26263.91193762  .00000223  00000+0  50239-4 0  9999","line2":"2 47303  98.0375 151.0460 0000770 260.1318  99.9799 14.65167565305740","mean_motion":14.65167565,"eccentricity":7.7e-5,"inclination_deg":98.0375,"raan_deg":151.046,"arg_perigee_deg":260.1318,"mean_anomaly_deg":99.9799,"bstar":5.0239e-5,"rev_number":30574,"period_min":98.282273945916,"perigee_km":675.99424112456,"apogee_km":677.08066099002,"semimajor_km":7054.6744510573,"source":"CELESTRAK","updated_at":"2026-09-21T09:00:07.513417Z"}}}